Time,TemperatureF,DewpointF,PressureIn,WindDirection,WindDirectionDegrees,WindSpeedMPH,WindSpeedGustMPH,Humidity,HourlyPrecipIn,Conditions,Clouds,dailyrainin,SolarRadiationWatts/m^2,SoftwareType,DateUTC
2017-06-26 00:02:00,67.3,47.5,29.92,WSW,256,0.0,2.0,49,0.00,,,0.00,0.0,meteohub,2017-06-26 07:02:00,
2017-06-26 00:07:00,66.7,48.0,29.92,WSW,256,1.0,4.0,51,0.00,,,0.00,0.0,meteohub,2017-06-26 07:07:00,
2017-06-26 00:12:00,66.9,48.2,29.91,WSW,256,1.0,4.0,51,0.00,,,0.00,0.0,meteohub,2017-06-26 07:12:00,
2017-06-26 00:17:00,66.6,47.8,29.92,WSW,256,0.0,4.0,51,0.00,,,0.00,0.0,meteohub,2017-06-26 07:17:00,
2017-06-26 00:22:00,66.0,47.8,29.91,WSW,256,0.0,4.0,52,0.00,,,0.00,0.0,meteohub,2017-06-26 07:22:00,
2017-06-26 00:27:00,65.8,47.7,29.91,WSW,256,0.0,1.0,52,0.00,,,0.00,0.0,meteohub,2017-06-26 07:27:00,
2017-06-26 00:32:00,66.0,47.8,29.91,WSW,256,0.0,0.0,52,0.00,,,0.00,0.0,meteohub,2017-06-26 07:32:00,
2017-06-26 00:37:00,65.7,48.6,29.91,WSW,256,0.0,0.0,54,0.00,,,0.00,0.0,meteohub,2017-06-26 07:37:00,
2017-06-26 00:42:00,65.5,48.4,29.91,WSW,256,0.0,0.0,54,0.00,,,0.00,0.0,meteohub,2017-06-26 07:42:00,
2017-06-26 00:47:00,65.3,48.2,29.91,WSW,256,0.0,0.0,54,0.00,,,0.00,0.0,meteohub,2017-06-26 07:47:00,
2017-06-26 00:52:00,65.1,48.6,29.91,WSW,256,0.0,2.0,55,0.00,,,0.00,0.0,meteohub,2017-06-26 07:52:00,
2017-06-26 00:57:00,66.0,48.9,29.91,WSW,256,2.0,2.0,54,0.00,,,0.00,0.0,meteohub,2017-06-26 07:57:00,
2017-06-26 01:02:00,66.2,49.1,29.91,WSW,256,0.0,2.0,54,0.00,,,0.00,0.0,meteohub,2017-06-26 08:02:00,
2017-06-26 01:07:00,65.7,49.1,29.91,WSW,256,2.0,3.0,55,0.00,,,0.00,0.0,meteohub,2017-06-26 08:07:00,
2017-06-26 01:12:00,65.7,49.1,29.91,WSW,256,0.0,3.0,55,0.00,,,0.00,0.0,meteohub,2017-06-26 08:12:00,
2017-06-26 01:17:00,65.1,49.1,29.91,WSW,256,0.0,3.0,56,0.00,,,0.00,0.0,meteohub,2017-06-26 08:17:00,
2017-06-26 01:23:00,65.1,49.5,29.91,WSW,256,0.0,3.0,57,0.00,,,0.00,0.0,meteohub,2017-06-26 08:23:00,
2017-06-26 01:28:00,64.4,48.9,29.91,WSW,256,0.0,0.0,57,0.00,,,0.00,0.0,meteohub,2017-06-26 08:28:00,
2017-06-26 01:33:00,64.2,49.1,29.91,WSW,256,0.0,0.0,58,0.00,,,0.00,0.0,meteohub,2017-06-26 08:33:00,
2017-06-26 01:38:00,63.9,49.3,29.91,WSW,256,0.0,2.0,59,0.00,,,0.00,0.0,meteohub,2017-06-26 08:38:00,
2017-06-26 01:43:00,63.3,48.7,29.91,WSW,256,0.0,2.0,59,0.00,,,0.00,0.0,meteohub,2017-06-26 08:43:00,
2017-06-26 01:49:00,63.1,48.6,29.91,WSW,256,0.0,0.0,59,0.00,,,0.00,0.0,meteohub,2017-06-26 08:49:00,
2017-06-26 01:54:00,63.7,48.6,29.91,WSW,256,0.0,2.0,58,0.00,,,0.00,0.0,meteohub,2017-06-26 08:54:00,
2017-06-26 01:59:00,63.7,48.6,29.91,WSW,256,0.0,2.0,58,0.00,,,0.00,0.0,meteohub,2017-06-26 08:59:00,
2017-06-26 02:04:00,63.3,47.8,29.91,WSW,256,0.0,2.0,57,0.00,,,0.00,0.0,meteohub,2017-06-26 09:04:00,
2017-06-26 02:09:00,63.1,47.7,29.91,WSW,256,0.0,1.0,57,0.00,,,0.00,0.0,meteohub,2017-06-26 09:09:00,
2017-06-26 02:15:00,63.0,47.5,29.91,WSW,256,0.0,1.0,57,0.00,,,0.00,0.0,meteohub,2017-06-26 09:15:00,
2017-06-26 02:20:00,63.0,47.5,29.91,WSW,256,0.0,1.0,57,0.00,,,0.00,0.0,meteohub,2017-06-26 09:20:00,
2017-06-26 02:25:00,62.8,46.9,29.90,WSW,256,0.0,1.0,56,0.00,,,0.00,0.0,meteohub,2017-06-26 09:25:00,
2017-06-26 02:30:00,62.8,47.3,29.91,WSW,256,0.0,1.0,57,0.00,,,0.00,0.0,meteohub,2017-06-26 09:30:00,
2017-06-26 02:35:00,63.0,46.9,29.91,WSW,256,0.0,1.0,56,0.00,,,0.00,0.0,meteohub,2017-06-26 09:35:00,
2017-06-26 02:37:00,62.8,46.9,29.91,WSW,256,0.0,0.0,56,0.00,,,0.00,0.0,meteohub,2017-06-26 09:37:00,
2017-06-26 02:42:00,62.1,46.6,29.91,WSW,256,0.0,0.0,57,0.00,,,0.00,0.0,meteohub,2017-06-26 09:42:00,
2017-06-26 02:47:00,61.9,47.5,29.90,WSW,256,0.0,0.0,59,0.00,,,0.00,0.0,meteohub,2017-06-26 09:47:00,
2017-06-26 02:53:00,61.9,47.5,29.90,WSW,256,0.0,0.0,59,0.00,,,0.00,0.0,meteohub,2017-06-26 09:53:00,
2017-06-26 02:58:00,62.2,48.2,29.90,WSW,256,0.0,2.0,60,0.00,,,0.00,0.0,meteohub,2017-06-26 09:58:00,
2017-06-26 03:03:00,62.4,47.8,29.90,WSW,256,1.0,2.0,59,0.00,,,0.00,0.0,meteohub,2017-06-26 10:03:00,
2017-06-26 03:08:00,62.4,48.4,29.90,WSW,256,0.0,2.0,60,0.00,,,0.00,0.0,meteohub,2017-06-26 10:08:00,
2017-06-26 03:13:00,62.8,48.7,29.91,WSW,256,0.0,2.0,60,0.00,,,0.00,0.0,meteohub,2017-06-26 10:13:00,
2017-06-26 03:18:00,62.6,48.6,29.91,WSW,256,0.0,2.0,60,0.00,,,0.00,0.0,meteohub,2017-06-26 10:18:00,
2017-06-26 03:24:00,62.6,48.6,29.91,WSW,256,0.0,2.0,60,0.00,,,0.00,0.0,meteohub,2017-06-26 10:24:00,
2017-06-26 03:29:00,62.4,48.7,29.90,WSW,256,1.0,1.0,61,0.00,,,0.00,0.0,meteohub,2017-06-26 10:29:00,
2017-06-26 03:34:00,63.0,48.9,29.90,WSW,256,0.0,2.0,60,0.00,,,0.00,0.0,meteohub,2017-06-26 10:34:00,
2017-06-26 03:39:00,63.3,49.3,29.90,WSW,256,0.0,2.0,60,0.00,,,0.00,0.0,meteohub,2017-06-26 10:39:00,
2017-06-26 03:44:00,63.3,48.7,29.90,WSW,256,0.0,2.0,59,0.00,,,0.00,0.0,meteohub,2017-06-26 10:44:00,
2017-06-26 03:50:00,63.3,48.7,29.90,WSW,256,0.0,1.0,59,0.00,,,0.00,0.0,meteohub,2017-06-26 10:50:00,
2017-06-26 03:55:00,63.0,48.4,29.90,WSW,256,0.0,1.0,59,0.00,,,0.00,0.0,meteohub,2017-06-26 10:55:00,
2017-06-26 04:00:00,63.0,48.4,29.90,WSW,256,0.0,0.0,59,0.00,,,0.00,0.0,meteohub,2017-06-26 11:00:00,
2017-06-26 04:05:00,63.1,48.6,29.90,WSW,256,0.0,1.0,59,0.00,,,0.00,0.0,meteohub,2017-06-26 11:05:00,
2017-06-26 04:10:00,63.5,48.9,29.90,WSW,256,0.0,1.0,59,0.00,,,0.00,0.0,meteohub,2017-06-26 11:10:00,
2017-06-26 04:16:00,62.8,48.7,29.90,WSW,256,0.0,1.0,60,0.00,,,0.00,0.0,meteohub,2017-06-26 11:16:00,
2017-06-26 04:21:00,63.1,49.1,29.90,WSW,256,0.0,1.0,60,0.00,,,0.00,0.0,meteohub,2017-06-26 11:21:00,
2017-06-26 04:26:00,63.9,49.3,29.90,WSW,256,0.0,0.0,59,0.00,,,0.00,0.0,meteohub,2017-06-26 11:26:00,
2017-06-26 04:31:00,63.9,48.7,29.90,WSW,256,0.0,1.0,58,0.00,,,0.00,0.0,meteohub,2017-06-26 11:31:00,
2017-06-26 04:36:00,64.2,49.1,29.90,WSW,256,0.0,1.0,58,0.00,,,0.00,0.0,meteohub,2017-06-26 11:36:00,
2017-06-26 04:42:00,64.8,49.1,29.90,WSW,256,0.0,1.0,57,0.00,,,0.00,0.0,meteohub,2017-06-26 11:42:00,
2017-06-26 04:47:00,64.6,48.9,29.90,WSW,256,0.0,1.0,57,0.00,,,0.00,0.0,meteohub,2017-06-26 11:47:00,
2017-06-26 04:52:00,64.0,48.9,29.90,WSW,256,0.0,1.0,58,0.00,,,0.00,0.0,meteohub,2017-06-26 11:52:00,
2017-06-26 04:57:00,63.5,48.9,29.90,WSW,256,0.0,1.0,59,0.00,,,0.00,0.0,meteohub,2017-06-26 11:57:00,
2017-06-26 05:02:00,63.0,48.9,29.90,WSW,256,0.0,1.0,60,0.00,,,0.00,0.0,meteohub,2017-06-26 12:02:00,
2017-06-26 05:07:00,62.1,48.4,29.90,WSW,256,0.0,1.0,61,0.00,,,0.00,0.0,meteohub,2017-06-26 12:07:00,
2017-06-26 05:12:00,61.9,48.7,29.90,WSW,256,0.0,1.0,62,0.00,,,0.00,0.0,meteohub,2017-06-26 12:12:00,
2017-06-26 05:17:00,61.7,48.6,29.90,WSW,256,0.0,0.0,62,0.00,,,0.00,0.0,meteohub,2017-06-26 12:17:00,
2017-06-26 05:22:00,61.3,49.1,29.90,WSW,256,0.0,0.0,64,0.00,,,0.00,0.0,meteohub,2017-06-26 12:22:00,
2017-06-26 05:27:00,60.8,48.6,29.90,WSW,256,0.0,0.0,64,0.00,,,0.00,0.0,meteohub,2017-06-26 12:27:00,
2017-06-26 05:32:00,61.0,48.7,29.90,WSW,256,0.0,0.0,64,0.00,,,0.00,0.0,meteohub,2017-06-26 12:32:00,
2017-06-26 05:37:00,61.0,48.7,29.90,WSW,256,0.0,0.0,64,0.00,,,0.00,0.0,meteohub,2017-06-26 12:37:00,
2017-06-26 05:43:00,60.4,48.6,29.90,WSW,256,0.0,0.0,65,0.00,,,0.00,7.0,meteohub,2017-06-26 12:43:00,
2017-06-26 05:49:00,60.3,48.4,29.91,WSW,256,0.0,0.0,65,0.00,,,0.00,11.0,meteohub,2017-06-26 12:49:00,
2017-06-26 05:54:00,60.6,48.7,29.91,WSW,256,0.0,0.0,65,0.00,,,0.00,12.0,meteohub,2017-06-26 12:54:00,
2017-06-26 05:59:00,62.2,48.6,29.91,WSW,256,0.0,0.0,61,0.00,,,0.00,16.0,meteohub,2017-06-26 12:59:00,
2017-06-26 06:04:00,62.1,48.4,29.91,WSW,256,0.0,0.0,61,0.00,,,0.00,18.0,meteohub,2017-06-26 13:04:00,
2017-06-26 06:09:00,61.9,49.1,29.91,WSW,256,0.0,0.0,63,0.00,,,0.00,21.0,meteohub,2017-06-26 13:09:00,
2017-06-26 06:15:00,62.2,49.5,29.91,WSW,256,0.0,0.0,63,0.00,,,0.00,25.0,meteohub,2017-06-26 13:15:00,
2017-06-26 06:20:00,62.8,49.6,29.91,WSW,256,0.0,0.0,62,0.00,,,0.00,32.0,meteohub,2017-06-26 13:20:00,
2017-06-26 06:25:00,63.7,50.4,29.91,WSW,256,0.0,0.0,62,0.00,,,0.00,30.0,meteohub,2017-06-26 13:25:00,
2017-06-26 06:30:00,64.2,50.5,29.91,WSW,256,0.0,0.0,61,0.00,,,0.00,56.0,meteohub,2017-06-26 13:30:00,
2017-06-26 06:34:00,64.8,51.4,29.91,WSW,256,0.0,0.0,62,0.00,,,0.00,65.0,meteohub,2017-06-26 13:34:00,
2017-06-26 06:39:00,65.3,51.4,29.91,WSW,256,0.0,0.0,61,0.00,,,0.00,72.0,meteohub,2017-06-26 13:39:00,
2017-06-26 06:44:00,66.4,52.2,29.91,WSW,256,0.0,0.0,60,0.00,,,0.00,88.0,meteohub,2017-06-26 13:44:00,
2017-06-26 06:50:00,67.3,52.5,29.91,WSW,256,0.0,0.0,59,0.00,,,0.00,97.0,meteohub,2017-06-26 13:50:00,
2017-06-26 06:55:00,67.8,54.0,29.90,WSW,256,0.0,0.0,61,0.00,,,0.00,100.0,meteohub,2017-06-26 13:55:00,
2017-06-26 06:57:00,67.8,54.0,29.90,WSW,256,0.0,0.0,61,0.00,,,0.00,111.0,meteohub,2017-06-26 13:57:00,
2017-06-26 07:03:00,68.7,51.4,29.90,WSW,256,0.0,0.0,54,0.00,,,0.00,137.0,meteohub,2017-06-26 14:03:00,
2017-06-26 07:08:00,69.3,53.4,29.90,WSW,256,0.0,0.0,57,0.00,,,0.00,155.0,meteohub,2017-06-26 14:08:00,
2017-06-26 07:13:00,70.0,54.0,29.90,WSW,256,0.0,0.0,57,0.00,,,0.00,165.0,meteohub,2017-06-26 14:13:00,
2017-06-26 07:18:00,70.3,51.8,29.90,WSW,256,0.0,0.0,52,0.00,,,0.00,183.0,meteohub,2017-06-26 14:18:00,
2017-06-26 07:19:00,70.5,51.4,29.90,WSW,256,0.0,0.0,51,0.00,,,0.00,186.0,meteohub,2017-06-26 14:19:00,
2017-06-26 07:25:00,71.1,52.0,29.90,WSW,256,0.0,0.0,51,0.00,,,0.00,206.0,meteohub,2017-06-26 14:25:00,
2017-06-26 07:30:00,71.2,50.5,29.90,WSW,256,0.0,0.0,48,0.00,,,0.00,225.0,meteohub,2017-06-26 14:30:00,
2017-06-26 07:35:00,71.4,51.8,29.90,WSW,256,0.0,0.0,50,0.00,,,0.00,243.0,meteohub,2017-06-26 14:35:00,
2017-06-26 07:40:00,71.6,52.5,29.91,WSW,256,0.0,0.0,51,0.00,,,0.00,265.0,meteohub,2017-06-26 14:40:00,
2017-06-26 07:46:00,71.8,53.8,29.91,WSW,256,0.0,0.0,53,0.00,,,0.00,288.0,meteohub,2017-06-26 14:46:00,
2017-06-26 07:51:00,72.0,51.8,29.90,WSW,256,0.0,0.0,49,0.00,,,0.00,309.0,meteohub,2017-06-26 14:51:00,
2017-06-26 07:56:00,72.1,50.7,29.90,WSW,256,0.0,0.0,47,0.00,,,0.00,332.0,meteohub,2017-06-26 14:56:00,
2017-06-26 08:01:00,72.1,52.5,29.90,WSW,256,0.0,0.0,50,0.00,,,0.00,357.0,meteohub,2017-06-26 15:01:00,
2017-06-26 08:07:00,72.3,52.2,29.90,WSW,256,0.0,0.0,49,0.00,,,0.00,381.0,meteohub,2017-06-26 15:07:00,
2017-06-26 08:12:00,72.1,49.1,29.91,WSW,256,0.0,0.0,44,0.00,,,0.00,401.0,meteohub,2017-06-26 15:12:00,
2017-06-26 08:17:00,72.3,50.4,29.91,WSW,256,0.0,1.0,46,0.00,,,0.00,418.0,meteohub,2017-06-26 15:17:00,
2017-06-26 08:22:00,72.7,51.3,29.91,WSW,256,0.0,1.0,47,0.00,,,0.00,443.0,meteohub,2017-06-26 15:22:00,
2017-06-26 08:27:00,73.0,52.2,29.91,WSW,256,0.0,1.0,48,0.00,,,0.00,462.0,meteohub,2017-06-26 15:27:00,
2017-06-26 08:32:00,73.4,52.0,29.91,WSW,256,0.0,1.0,47,0.00,,,0.00,476.0,meteohub,2017-06-26 15:32:00,
2017-06-26 08:37:00,73.9,54.1,29.91,WSW,256,0.0,0.0,50,0.00,,,0.00,492.0,meteohub,2017-06-26 15:37:00,
2017-06-26 08:42:00,74.1,50.9,29.91,WSW,256,0.0,1.0,44,0.00,,,0.00,510.0,meteohub,2017-06-26 15:42:00,
2017-06-26 08:47:00,74.1,51.4,29.91,WSW,256,0.0,1.0,45,0.00,,,0.00,526.0,meteohub,2017-06-26 15:47:00,
2017-06-26 08:52:00,74.1,51.4,29.91,WSW,256,0.0,1.0,45,0.00,,,0.00,545.0,meteohub,2017-06-26 15:52:00,
2017-06-26 08:57:00,74.8,52.2,29.91,WSW,256,0.0,1.0,45,0.00,,,0.00,561.0,meteohub,2017-06-26 15:57:00,
2017-06-26 09:02:00,75.4,51.3,29.91,WSW,256,0.0,1.0,43,0.00,,,0.00,571.0,meteohub,2017-06-26 16:02:00,
2017-06-26 09:07:00,75.6,52.2,29.91,WSW,256,0.0,1.0,44,0.00,,,0.00,587.0,meteohub,2017-06-26 16:07:00,
2017-06-26 09:12:00,75.7,51.6,29.91,WSW,256,0.0,2.0,43,0.00,,,0.00,601.0,meteohub,2017-06-26 16:12:00,
2017-06-26 09:18:00,75.7,51.1,29.91,WSW,256,0.0,2.0,42,0.00,,,0.00,621.0,meteohub,2017-06-26 16:18:00,
2017-06-26 09:23:00,76.1,51.3,29.91,WSW,256,0.0,2.0,42,0.00,,,0.00,636.0,meteohub,2017-06-26 16:23:00,
2017-06-26 09:28:00,76.6,51.3,29.91,WSW,256,0.0,2.0,41,0.00,,,0.00,649.0,meteohub,2017-06-26 16:28:00,
2017-06-26 09:33:00,76.3,50.2,29.91,WSW,256,1.0,2.0,40,0.00,,,0.00,659.0,meteohub,2017-06-26 16:33:00,
2017-06-26 09:38:00,76.8,52.0,29.91,WSW,258,0.0,2.0,42,0.00,,,0.00,677.0,meteohub,2017-06-26 16:38:00,
2017-06-26 09:44:00,77.7,53.4,29.90,West,259,0.0,4.0,43,0.00,,,0.00,691.0,meteohub,2017-06-26 16:44:00,
2017-06-26 09:49:00,78.3,52.0,29.90,WSW,258,0.0,4.0,40,0.00,,,0.00,710.0,meteohub,2017-06-26 16:49:00,
2017-06-26 09:54:00,78.6,51.6,29.89,West,260,0.0,4.0,39,0.00,,,0.00,733.0,meteohub,2017-06-26 16:54:00,
2017-06-26 09:59:00,78.6,50.2,29.89,West,261,1.0,4.0,37,0.00,,,0.00,752.0,meteohub,2017-06-26 16:59:00,
2017-06-26 10:04:00,79.2,50.7,29.90,West,264,0.0,4.0,37,0.00,,,0.00,770.0,meteohub,2017-06-26 17:04:00,
2017-06-26 10:10:00,79.5,50.2,29.89,West,262,0.0,4.0,36,0.00,,,0.00,780.0,meteohub,2017-06-26 17:10:00,
2017-06-26 10:15:00,79.5,49.5,29.89,West,262,1.0,3.0,35,0.00,,,0.00,798.0,meteohub,2017-06-26 17:15:00,
2017-06-26 10:20:00,80.1,49.1,29.89,West,264,3.0,3.0,34,0.00,,,0.00,807.0,meteohub,2017-06-26 17:20:00,
2017-06-26 10:25:00,80.2,50.2,29.89,West,265,0.0,3.0,35,0.00,,,0.00,817.0,meteohub,2017-06-26 17:25:00,
2017-06-26 10:30:00,80.6,47.1,29.89,West,270,0.0,3.0,31,0.00,,,0.00,831.0,meteohub,2017-06-26 17:30:00,
2017-06-26 10:36:00,80.8,47.3,29.89,West,270,0.0,5.0,31,0.00,,,0.00,844.0,meteohub,2017-06-26 17:36:00,
2017-06-26 10:41:00,81.0,47.5,29.89,West,270,0.0,3.0,31,0.00,,,0.00,853.0,meteohub,2017-06-26 17:41:00,
2017-06-26 10:46:00,81.3,46.0,29.89,West,270,1.0,4.0,29,0.00,,,0.00,860.0,meteohub,2017-06-26 17:46:00,
2017-06-26 10:51:00,82.2,47.7,29.89,West,270,0.0,4.0,30,0.00,,,0.00,863.0,meteohub,2017-06-26 17:51:00,
2017-06-26 10:56:00,82.6,48.9,29.89,West,272,2.0,4.0,31,0.00,,,0.00,888.0,meteohub,2017-06-26 17:56:00,
2017-06-26 11:02:00,83.3,46.8,29.89,WNW,289,1.0,9.0,28,0.00,,,0.00,895.0,meteohub,2017-06-26 18:02:00,
2017-06-26 11:07:00,83.3,47.7,29.88,WSW,254,17.0,17.0,29,0.00,,,0.00,904.0,meteohub,2017-06-26 18:07:00,
2017-06-26 11:12:00,83.7,47.1,29.89,West,269,7.0,18.0,28,0.00,,,0.00,905.0,meteohub,2017-06-26 18:12:00,
2017-06-26 11:17:00,83.3,46.8,29.90,WNW,283,0.0,18.0,28,0.00,,,0.00,914.0,meteohub,2017-06-26 18:17:00,
2017-06-26 11:22:00,84.0,46.4,29.89,NW,323,3.0,18.0,27,0.00,,,0.00,928.0,meteohub,2017-06-26 18:22:00,
2017-06-26 11:27:00,84.0,44.4,29.89,SSE,160,5.0,7.0,25,0.00,,,0.00,939.0,meteohub,2017-06-26 18:27:00,
2017-06-26 11:32:00,85.1,45.3,29.89,South,169,16.0,16.0,25,0.00,,,0.00,946.0,meteohub,2017-06-26 18:32:00,
2017-06-26 11:37:00,85.5,43.5,29.89,SW,214,8.0,20.0,23,0.00,,,0.00,954.0,meteohub,2017-06-26 18:37:00,
2017-06-26 11:42:00,85.6,42.4,29.89,SSW,193,11.0,20.0,22,0.00,,,0.00,962.0,meteohub,2017-06-26 18:42:00,
2017-06-26 11:48:00,85.5,42.3,29.90,South,179,13.0,21.0,22,0.00,,,0.00,967.0,meteohub,2017-06-26 18:48:00,
2017-06-26 11:53:00,85.3,42.1,29.90,South,180,8.0,21.0,22,0.00,,,0.00,974.0,meteohub,2017-06-26 18:53:00,
2017-06-26 11:58:00,85.3,41.0,29.90,SSW,204,14.0,21.0,21,0.00,,,0.00,983.0,meteohub,2017-06-26 18:58:00,
2017-06-26 12:03:00,86.2,41.7,29.90,SW,214,5.0,20.0,21,0.00,,,0.00,986.0,meteohub,2017-06-26 19:03:00,
2017-06-26 12:08:00,86.4,44.2,29.90,SSW,208,13.0,20.0,23,0.00,,,0.00,984.0,meteohub,2017-06-26 19:08:00,
2017-06-26 12:13:00,86.2,42.8,29.90,SSW,197,9.0,17.0,22,0.00,,,0.00,997.0,meteohub,2017-06-26 19:13:00,
2017-06-26 12:19:00,86.5,43.2,29.89,SSW,210,5.0,18.0,22,0.00,,,0.00,995.0,meteohub,2017-06-26 19:19:00,
2017-06-26 12:24:00,86.2,42.8,29.89,SW,223,7.0,20.0,22,0.00,,,0.00,993.0,meteohub,2017-06-26 19:24:00,
2017-06-26 12:29:00,85.6,42.4,29.89,South,181,5.0,22.0,22,0.00,,,0.00,1002.0,meteohub,2017-06-26 19:29:00,
2017-06-26 12:34:00,85.6,43.5,29.89,SSW,197,13.0,22.0,23,0.00,,,0.00,1005.0,meteohub,2017-06-26 19:34:00,